Accueil
METAR-TAF:

METAR-TAF

Aéroports :

Plaisance, Italie

latitude: 44-55N, longitude: 009-44E, altitude: 134 m

Observation

Le bulletin a été fait il y a 35 minutes, à 15:55 UTC
Vent 1 kt de nord-ouest
Température 17°C
Humidité 77%
Pression 1026 hPa
Visibilité: 8000 m

METAR: LIMS 191555Z 32001KT 8000 NSC 17/13 Q1026 RMK BKN BKN180 VIS MIN 8000 WIND THR30 33001KT BLU

Heure: 18:30 (16:30 UTC)


TAF: absent

Observations et prévisions météorologiques de plus de 4000 aéroports (messages METAR et TAF).

Les stations disponibles sont représentées par des disques jaunes et rouges sur la carte.

Passer la souris dessus pour voir le nom de la station.

Cliquer dessus pour voir les observations et prévisions météorologiques.

Pour changer de carte: cliquez sur les boutons verts avec une croix noire pour zoomer, sur le bouton vert avec un tiret pour effectuer un zoom arrière, ou sur les flèches vertes pour les cartes adjacentes.


METAR-TAF: